Mars Hill, North Carolina, United States (28754)
Lat: 35.83N, Lon: 82.55W
Wx Zone: NCZ048
Local Info
Past Weather Observations for Today

NOTE: This archive is for the closest National Weather Service station to Mars Hill. Information may differ from the station used for current weather conditions.

Click here for Long-term Archive

Time Weather Temperature Dewpoint Humidity Pressure Winds Precip Visibility
10:54
Clear
82°F / 28°C 64°F / 18°C 55% 30.18 in
(1022 mb)
N 6.9 mph
(N 11 kph)
- 10SM
09:54
Clear
81°F / 27°C 66°F / 19°C 62% 30.18 in
(1022 mb)
Calm - 10SM
08:54
Clear
75°F / 24°C 66°F / 19°C 74% 30.18 in
(1022 mb)
NNW 4.6 mph
(NNW 7 kph)
- 10SM
07:54
Clear
70°F / 21°C 66°F / 19°C 88% 30.18 in
(1022 mb)
NNW 5.8 mph
(NNW 9 kph)
- 10SM
06:54
Clear
66°F / 19°C 64°F / 18°C 94% 30.18 in
(1022 mb)
Calm - 10SM
05:54
Partly Cloudy
64°F / 18°C 63°F / 17°C 94% 30.18 in
(1022 mb)
Calm - 10SM
05:50
Partly Cloudy
64°F / 18°C 63°F / 17°C 94% 30.18 in
(1022 mb)
Calm - 10SM
04:54
Clear
66°F / 19°C 64°F / 18°C 94% 30.18 in
(1022 mb)
NNW 3.5 mph
(NNW 6 kph)
- 10SM
04:31
Partly Cloudy
66°F / 19°C 64°F / 18°C 94% 30.18 in
(1022 mb)
NNW 4.6 mph
(NNW 7 kph)
- 10SM
04:24
Mostly Cloudy
66°F / 19°C 64°F / 18°C 94% 30.18 in
(1022 mb)
NNW 3.5 mph
(NNW 6 kph)
- 10SM
04:16
Partly Cloudy
66°F / 19°C 64°F / 18°C 94% 30.18 in
(1022 mb)
Calm - 10SM
03:54
Clear
66°F / 19°C 64°F / 18°C 94% 30.15 in
(1021 mb)
NNW 4.6 mph
(NNW 7 kph)
- 10SM
03:18
Partly Cloudy
66°F / 19°C 64°F / 18°C 94% 30.15 in
(1021 mb)
NNW 4.6 mph
(NNW 7 kph)
- 10SM
03:07
Mostly Cloudy
66°F / 19°C 64°F / 18°C 94% 30.15 in
(1021 mb)
NNW 5.8 mph
(NNW 9 kph)
- 10SM
02:54
Mostly Cloudy
66°F / 19°C 64°F / 18°C 94% 30.15 in
(1021 mb)
Calm - 10SM
02:51
Mostly Cloudy
66°F / 19°C 64°F / 18°C 94% 30.15 in
(1021 mb)
Calm - 10SM
02:44
Partly Cloudy
Fog And Mist
66°F / 19°C 64°F / 18°C 94% 30.15 in
(1021 mb)
Calm - 3SM
02:41
Partly Cloudy
Fog And Mist
66°F / 19°C 64°F / 18°C 94% 30.18 in
(1022 mb)
Calm - 1 3/4SM
02:33
Partly Cloudy
Fog And Mist
66°F / 19°C 64°F / 18°C 94% 30.18 in
(1022 mb)
Calm - 2 1/2SM
01:54
Clear
68°F / 20°C 66°F / 19°C 94% 30.18 in
(1022 mb)
NNW 4.6 mph
(NNW 7 kph)
- 10SM
00:54
Clear
68°F / 20°C 66°F / 19°C 94% 30.18 in
(1022 mb)
Calm - 10SM
Time Weather Temperature Dewpoint Humidity Pressure Winds Precip Visibility


Weather for websites

WeatherForYou.com, LLC is not responsible for any damages or problems caused by this service. Current weather conditions are obtained from the closest station including government and personal stations which may have varying degrees of accuracy. Weather forecasts are derived from the NOAA NDFD. Like all things, this site belongs to Jesus Christ... He just trusts me to maintain it. If you have any questions or comments email webmaster@weatherforyou.com

Copyright © 2014, WeatherForYou.com LLC. All rights reserved.